Simultaneous Nadir Overpasses (SNOs) Predictions

Prediction of SNOs between LANDSAT-8 and METOP-A Satellite Orbit:

Table of predicted SNOs for the next 14.0 days since TLE Epoch: 12/18/2015
Index Date (LANDSAT-8) Time (LANDSAT-8) Lat,Lon (LANDSAT-8) SZA (LANDSAT-8 ) Date (METOP-A) Time (METOP-A) Lat,Lon (METOP-A) SZA (METOP-A ) Distance(km) Time Diff (sec)
1 12/20/2015 07:37:45 -81.11, -74.72 73.50 12/20/2015 07:36:49 -81.11, -74.67 73.52 0.98 56
2 12/20/2015 08:27:11 81.12, 93.03 106.52 12/20/2015 08:27:28 81.13, 93.21 106.55 3.23 17
3 12/23/2015 03:12:01 -81.10, -8.51 73.56 12/23/2015 03:11:14 -81.10, -8.66 73.59 2.49 47
4 12/23/2015 04:01:26 81.13, 159.57 106.51 12/23/2015 04:01:52 81.13, 159.59 106.52 0.30 26
5 12/25/2015 22:46:15 -81.10, 57.96 73.64 12/25/2015 22:45:36 -81.11, 58.06 73.64 1.81 39
6 12/25/2015 23:35:40 81.13,-133.98 106.43 12/25/2015 23:36:15 81.13,-134.07 106.43 1.63 35
7 12/28/2015 18:20:29 -81.12, 124.71 73.74 12/28/2015 18:19:59 -81.12, 124.73 73.75 0.60 30
8 12/28/2015 19:09:55 81.12, -67.62 106.27 12/28/2015 19:10:39 81.12, -67.77 106.27 2.60 44
9 12/31/2015 13:54:44 -81.11,-169.00 73.97 12/31/2015 13:54:23 -81.11,-169.00 73.97 0.16 21




NCC Satellite Simultaneous Nadir Overpasses (SNOs) Prediction Service
